Location: Praha
(50.0830°N, 14.4670°E)
Time: 01:24:25
(UTC+01:00)

ISS - Pass Details

Date: 22 November 2020
Orbit: 418 x 420 km, 51.6° (Epoch: 05 December)

Event Time Altitude Azimuth Distance (km) Brightness Sun altitude
Rises 18:06:00 0° 224° (SW) 2,352 1.0 -18.2°
Reaches altitude 10° 18:08:11 10° 215° (SW) 1,492 -0.4 -18.6°
Enters shadow 18:11:03 34° 157° (SSE) 713 -2.8 -19.0°
